Year,Month,Day,Hour,Minute,Value (Times are PST for temperature in C)
2018,06,19,00,00,19.60
2018,06,19,00,01,19.70
2018,06,19,00,02,19.70
2018,06,19,00,03,19.80
2018,06,19,00,04,19.80
2018,06,19,00,05,19.80
2018,06,19,00,06,19.90
2018,06,19,00,07,19.90
2018,06,19,00,08,19.90
2018,06,19,00,09,19.90
2018,06,19,00,10,19.90
2018,06,19,00,11,19.90
2018,06,19,00,12,19.90
2018,06,19,00,13,19.80
2018,06,19,00,14,19.80
2018,06,19,00,15,19.70
2018,06,19,00,16,19.60
2018,06,19,00,17,19.50
2018,06,19,00,18,19.50
2018,06,19,00,19,19.40
2018,06,19,00,20,19.40
2018,06,19,00,21,19.30
2018,06,19,00,22,19.30
2018,06,19,00,23,19.20
2018,06,19,00,24,19.20
2018,06,19,00,25,19.20
2018,06,19,00,26,19.20
2018,06,19,00,27,19.20
2018,06,19,00,28,19.20
2018,06,19,00,29,19.20
2018,06,19,00,30,19.20
2018,06,19,00,31,19.10
2018,06,19,00,32,19.10
2018,06,19,00,33,19.10
2018,06,19,00,34,19.10
2018,06,19,00,35,19.00
2018,06,19,00,36,19.00
2018,06,19,00,37,18.90
2018,06,19,00,38,18.90
2018,06,19,00,39,18.80
2018,06,19,00,40,18.80
2018,06,19,00,41,18.80
2018,06,19,00,42,18.70
2018,06,19,00,43,18.70
2018,06,19,00,44,18.60
2018,06,19,00,45,18.60
2018,06,19,00,46,18.50
2018,06,19,00,47,18.50
2018,06,19,00,48,18.40
2018,06,19,00,49,18.40
2018,06,19,00,50,18.40
2018,06,19,00,51,18.30
2018,06,19,00,52,18.30
2018,06,19,00,53,18.30
2018,06,19,00,54,18.20
2018,06,19,00,55,18.20
2018,06,19,00,56,18.20
2018,06,19,00,57,18.10
2018,06,19,00,58,18.10
2018,06,19,00,59,18.10
2018,06,19,01,00,18.00
2018,06,19,01,01,18.00
2018,06,19,01,02,17.90
2018,06,19,01,03,17.90
2018,06,19,01,04,17.90
2018,06,19,01,05,17.80
2018,06,19,01,06,17.80
2018,06,19,01,07,17.80
2018,06,19,01,08,17.80
2018,06,19,01,09,17.80
2018,06,19,01,10,17.80
2018,06,19,01,11,17.80
2018,06,19,01,12,17.80
2018,06,19,01,13,17.80
2018,06,19,01,14,17.80
2018,06,19,01,15,17.90
2018,06,19,01,16,17.80
2018,06,19,01,17,17.80
2018,06,19,01,18,17.80
2018,06,19,01,19,17.80
2018,06,19,01,20,17.80
2018,06,19,01,21,17.80
2018,06,19,01,22,17.80
2018,06,19,01,23,17.70
2018,06,19,01,24,17.70
2018,06,19,01,25,17.70
2018,06,19,01,26,17.70
2018,06,19,01,27,17.70
2018,06,19,01,28,17.60
2018,06,19,01,29,17.60
2018,06,19,01,30,17.60
2018,06,19,01,31,17.60
2018,06,19,01,32,17.50
2018,06,19,01,33,17.50
2018,06,19,01,34,17.40
2018,06,19,01,35,17.40
2018,06,19,01,36,17.40
2018,06,19,01,37,17.40
2018,06,19,01,38,17.30
2018,06,19,01,39,17.30
2018,06,19,01,40,17.30
2018,06,19,01,41,17.30
2018,06,19,01,42,17.30
2018,06,19,01,43,17.30
2018,06,19,01,44,17.30
2018,06,19,01,45,17.30
2018,06,19,01,46,17.30
2018,06,19,01,47,17.30
2018,06,19,01,48,17.30
2018,06,19,01,49,17.30
2018,06,19,01,50,17.30
2018,06,19,01,51,17.30
2018,06,19,01,52,17.30
2018,06,19,01,53,17.30
2018,06,19,01,54,17.30
2018,06,19,01,55,17.30
2018,06,19,01,56,17.20
2018,06,19,01,57,17.20
2018,06,19,01,58,17.20
2018,06,19,01,59,17.20
2018,06,19,02,00,17.10
2018,06,19,02,01,17.10
2018,06,19,02,02,17.00
2018,06,19,02,03,17.00
2018,06,19,02,04,17.00
2018,06,19,02,05,16.90
2018,06,19,02,06,16.90
2018,06,19,02,07,16.90
2018,06,19,02,08,16.90
2018,06,19,02,09,16.90
2018,06,19,02,10,16.80
2018,06,19,02,11,16.80
2018,06,19,02,12,16.80
2018,06,19,02,13,16.80
2018,06,19,02,14,16.80
2018,06,19,02,15,16.80
2018,06,19,02,16,16.80
2018,06,19,02,17,16.70
2018,06,19,02,18,16.70
2018,06,19,02,19,16.70
2018,06,19,02,20,16.70
2018,06,19,02,21,16.70
2018,06,19,02,22,16.60
2018,06,19,02,23,16.60
2018,06,19,02,24,16.60
2018,06,19,02,25,16.60
2018,06,19,02,26,16.60
2018,06,19,02,27,16.60
2018,06,19,02,28,16.50
2018,06,19,02,29,16.50
2018,06,19,02,30,16.50
2018,06,19,02,31,16.40
2018,06,19,02,32,16.40
2018,06,19,02,33,16.40
2018,06,19,02,34,16.40
2018,06,19,02,35,16.40
2018,06,19,02,36,16.40
2018,06,19,02,37,16.30
2018,06,19,02,38,16.30
2018,06,19,02,39,16.30
2018,06,19,02,40,16.30
2018,06,19,02,41,16.30
2018,06,19,02,42,16.30
2018,06,19,02,43,16.30
2018,06,19,02,44,16.20
2018,06,19,02,45,16.20
2018,06,19,02,46,16.20
2018,06,19,02,47,16.20
2018,06,19,02,48,16.20
2018,06,19,02,49,16.20
2018,06,19,02,50,16.20
2018,06,19,02,51,16.20
2018,06,19,02,52,16.20
2018,06,19,02,53,16.20
2018,06,19,02,54,16.20
2018,06,19,02,55,16.10
2018,06,19,02,56,16.10
2018,06,19,02,57,16.10
2018,06,19,02,58,16.10
2018,06,19,02,59,16.10
2018,06,19,03,00,16.10
2018,06,19,03,01,16.10
2018,06,19,03,02,16.10
2018,06,19,03,03,16.10
2018,06,19,03,04,16.10
2018,06,19,03,05,16.10
2018,06,19,03,06,16.10
2018,06,19,03,07,16.10
2018,06,19,03,08,16.10
2018,06,19,03,09,16.00
2018,06,19,03,10,16.00
2018,06,19,03,11,16.00
2018,06,19,03,12,16.00
2018,06,19,03,13,15.90
2018,06,19,03,14,15.90
2018,06,19,03,15,15.90
2018,06,19,03,16,15.90
2018,06,19,03,17,15.90
2018,06,19,03,18,15.90
2018,06,19,03,19,15.80
2018,06,19,03,20,15.80
2018,06,19,03,21,15.80
2018,06,19,03,22,15.80
2018,06,19,03,23,15.80
2018,06,19,03,24,15.80
2018,06,19,03,25,15.80
2018,06,19,03,26,15.80
2018,06,19,03,27,15.80
2018,06,19,03,28,15.80
2018,06,19,03,29,15.80
2018,06,19,03,30,15.80
2018,06,19,03,31,15.80
2018,06,19,03,32,15.80
2018,06,19,03,33,15.70
2018,06,19,03,34,15.70
2018,06,19,03,35,15.70
2018,06,19,03,36,15.70
2018,06,19,03,37,15.70
2018,06,19,03,38,15.70
2018,06,19,03,39,15.60
2018,06,19,03,40,15.60
2018,06,19,03,41,15.60
2018,06,19,03,42,15.60
2018,06,19,03,43,15.60
2018,06,19,03,44,15.60
2018,06,19,03,45,15.50
2018,06,19,03,46,15.50
2018,06,19,03,47,15.50
2018,06,19,03,48,15.40
2018,06,19,03,49,15.40
2018,06,19,03,50,15.40
2018,06,19,03,51,15.40
2018,06,19,03,52,15.40
2018,06,19,03,53,15.30
2018,06,19,03,54,15.30
2018,06,19,03,55,15.30
2018,06,19,03,56,15.30
2018,06,19,03,57,15.30
2018,06,19,03,58,15.30
2018,06,19,03,59,15.30
2018,06,19,04,00,15.30
2018,06,19,04,01,15.30
2018,06,19,04,02,15.30
2018,06,19,04,03,15.30
2018,06,19,04,04,15.40
2018,06,19,04,05,15.40
2018,06,19,04,06,15.40
2018,06,19,04,07,15.40
2018,06,19,04,08,15.40
2018,06,19,04,09,15.40
2018,06,19,04,10,15.40
2018,06,19,04,11,15.50
2018,06,19,04,12,15.50
2018,06,19,04,13,15.50
2018,06,19,04,14,15.60
2018,06,19,04,15,15.50
2018,06,19,04,16,15.60
2018,06,19,04,17,15.60
2018,06,19,04,18,15.60
2018,06,19,04,19,15.60
2018,06,19,04,20,15.60
2018,06,19,04,21,15.60
2018,06,19,04,22,15.60
2018,06,19,04,23,15.60
2018,06,19,04,24,15.60
2018,06,19,04,25,15.60
2018,06,19,04,26,15.60
2018,06,19,04,27,15.60
2018,06,19,04,28,15.60
2018,06,19,04,29,15.60
2018,06,19,04,30,15.60
2018,06,19,04,31,15.60
2018,06,19,04,32,15.60
2018,06,19,04,33,15.70
2018,06,19,04,34,15.60
2018,06,19,04,35,15.60
2018,06,19,04,36,15.60
2018,06,19,04,37,15.60
2018,06,19,04,38,15.70
2018,06,19,04,39,15.70
2018,06,19,04,40,15.70
2018,06,19,04,41,15.70
2018,06,19,04,42,15.70
2018,06,19,04,43,15.70
2018,06,19,04,44,15.70
2018,06,19,04,45,15.70
2018,06,19,04,46,15.70
2018,06,19,04,47,15.70
2018,06,19,04,48,15.70
2018,06,19,04,49,15.70
2018,06,19,04,50,15.70
2018,06,19,04,51,15.70
2018,06,19,04,52,15.70
2018,06,19,04,53,15.70
2018,06,19,04,54,15.70
2018,06,19,04,55,15.80
2018,06,19,04,56,15.80
2018,06,19,04,57,15.80
2018,06,19,04,58,15.80
2018,06,19,04,59,15.80
2018,06,19,05,00,15.80
2018,06,19,05,01,15.80
2018,06,19,05,02,15.80
2018,06,19,05,03,15.90
2018,06,19,05,04,15.90
2018,06,19,05,05,15.90
2018,06,19,05,06,15.90
2018,06,19,05,07,15.90
2018,06,19,05,08,15.90
2018,06,19,05,09,15.90
2018,06,19,05,10,15.90
2018,06,19,05,11,15.90
2018,06,19,05,12,15.90
2018,06,19,05,13,15.90
2018,06,19,05,14,16.00
2018,06,19,05,15,16.00
2018,06,19,05,16,16.00
2018,06,19,05,17,16.10
2018,06,19,05,18,16.10
2018,06,19,05,19,16.10
2018,06,19,05,20,16.10
2018,06,19,05,21,16.10
2018,06,19,05,22,16.20
2018,06,19,05,23,16.20
2018,06,19,05,24,16.20
2018,06,19,05,25,16.30
2018,06,19,05,26,16.30
2018,06,19,05,27,16.40
2018,06,19,05,28,16.40
2018,06,19,05,29,16.50
2018,06,19,05,30,16.50
2018,06,19,05,31,16.50
2018,06,19,05,32,16.60
2018,06,19,05,33,16.70
2018,06,19,05,34,16.70
2018,06,19,05,35,16.70
2018,06,19,05,36,16.70
2018,06,19,05,37,16.80
2018,06,19,05,38,16.80
2018,06,19,05,39,16.80
2018,06,19,05,40,16.80
2018,06,19,05,41,16.80
2018,06,19,05,42,16.80
2018,06,19,05,43,16.80
2018,06,19,05,44,16.80
2018,06,19,05,45,16.80
2018,06,19,05,46,16.80
2018,06,19,05,47,16.80
2018,06,19,05,48,16.80
2018,06,19,05,49,16.80
2018,06,19,05,50,16.80
2018,06,19,05,51,16.80
2018,06,19,05,52,16.80
2018,06,19,05,53,16.80
2018,06,19,05,54,16.80
2018,06,19,05,55,16.80
2018,06,19,05,56,16.80
2018,06,19,05,57,16.80
2018,06,19,05,58,16.80
2018,06,19,05,59,16.90
2018,06,19,06,00,16.90
2018,06,19,06,01,16.90
2018,06,19,06,02,16.90
2018,06,19,06,03,16.90
2018,06,19,06,04,17.00
2018,06,19,06,05,17.00
2018,06,19,06,06,17.00
2018,06,19,06,07,17.10
2018,06,19,06,08,17.10
2018,06,19,06,09,17.10
2018,06,19,06,10,17.20
2018,06,19,06,11,17.20
2018,06,19,06,12,17.20
2018,06,19,06,13,17.20
2018,06,19,06,14,17.20
2018,06,19,06,15,17.30
2018,06,19,06,16,17.30
2018,06,19,06,17,17.30
2018,06,19,06,18,17.30
2018,06,19,06,19,17.40
2018,06,19,06,20,17.40
2018,06,19,06,21,17.40
2018,06,19,06,22,17.50
2018,06,19,06,23,17.50
2018,06,19,06,24,17.60
2018,06,19,06,25,17.60
2018,06,19,06,26,17.60
2018,06,19,06,27,17.70
2018,06,19,06,28,17.70
2018,06,19,06,29,17.70
2018,06,19,06,30,17.80
2018,06,19,06,31,17.80
2018,06,19,06,32,17.80
2018,06,19,06,33,17.80
2018,06,19,06,34,17.80
2018,06,19,06,35,17.80
2018,06,19,06,36,17.80
2018,06,19,06,37,17.80
2018,06,19,06,38,17.80
2018,06,19,06,39,17.80
2018,06,19,06,40,17.80
2018,06,19,06,41,17.80
2018,06,19,06,42,17.80
2018,06,19,06,43,17.90
2018,06,19,06,44,17.90
2018,06,19,06,45,17.90
2018,06,19,06,46,17.90
2018,06,19,06,47,17.90
2018,06,19,06,48,17.90
2018,06,19,06,49,17.90
2018,06,19,06,50,17.90
2018,06,19,06,51,17.90
2018,06,19,06,52,17.90
2018,06,19,06,53,17.90
2018,06,19,06,54,17.90
2018,06,19,06,55,17.90
2018,06,19,06,56,17.90
2018,06,19,06,57,17.90
2018,06,19,06,58,17.90
2018,06,19,06,59,18.00
2018,06,19,07,00,18.00
2018,06,19,07,01,18.00
2018,06,19,07,02,18.10
2018,06,19,07,03,18.10
2018,06,19,07,04,18.10
2018,06,19,07,05,18.20
2018,06,19,07,06,18.20
2018,06,19,07,07,18.20
2018,06,19,07,08,18.20
2018,06,19,07,09,18.20
2018,06,19,07,10,18.20
2018,06,19,07,11,18.20
2018,06,19,07,12,18.20
2018,06,19,07,13,18.20
2018,06,19,07,14,18.20
2018,06,19,07,15,18.20
2018,06,19,07,16,18.20
2018,06,19,07,17,18.20
2018,06,19,07,18,18.20
2018,06,19,07,19,18.20
2018,06,19,07,20,18.20
2018,06,19,07,21,18.20
2018,06,19,07,22,18.20
2018,06,19,07,23,18.20
2018,06,19,07,24,18.20
2018,06,19,07,25,18.20
2018,06,19,07,26,18.20
2018,06,19,07,27,18.20
2018,06,19,07,28,18.20
2018,06,19,07,29,18.20
2018,06,19,07,30,18.20
2018,06,19,07,31,18.30
2018,06,19,07,32,18.30
2018,06,19,07,33,18.30
2018,06,19,07,34,18.40
2018,06,19,07,35,18.50
2018,06,19,07,36,18.60
2018,06,19,07,37,18.60
2018,06,19,07,38,18.70
2018,06,19,07,39,18.80
2018,06,19,07,40,18.80
2018,06,19,07,41,18.80
2018,06,19,07,42,18.90
2018,06,19,07,43,18.90
2018,06,19,07,44,19.00
2018,06,19,07,45,19.00
2018,06,19,07,46,19.00
2018,06,19,07,47,18.90
2018,06,19,07,48,18.90
2018,06,19,07,49,19.00
2018,06,19,07,50,19.00
2018,06,19,07,51,19.00
2018,06,19,07,52,19.10
2018,06,19,07,53,19.10
2018,06,19,07,54,19.10
2018,06,19,07,55,19.10
2018,06,19,07,56,19.10
2018,06,19,07,57,19.10
2018,06,19,07,58,19.10
2018,06,19,07,59,19.10
2018,06,19,08,00,19.00
2018,06,19,08,01,19.00
2018,06,19,08,02,19.00
2018,06,19,08,03,19.00
2018,06,19,08,04,19.00
2018,06,19,08,05,19.00
2018,06,19,08,06,19.00
2018,06,19,08,07,19.00
2018,06,19,08,08,19.00
2018,06,19,08,09,19.00
2018,06,19,08,10,19.00
2018,06,19,08,11,19.00
2018,06,19,08,12,19.00
2018,06,19,08,13,19.00
2018,06,19,08,14,19.00
2018,06,19,08,15,19.10
2018,06,19,08,16,19.10
2018,06,19,08,17,19.10
2018,06,19,08,18,19.10
2018,06,19,08,19,19.20
2018,06,19,08,20,19.20
2018,06,19,08,21,19.20
2018,06,19,08,22,19.30
2018,06,19,08,23,19.30
2018,06,19,08,24,19.30
2018,06,19,08,25,19.30
2018,06,19,08,26,19.30
2018,06,19,08,27,19.30
2018,06,19,08,28,19.40
2018,06,19,08,29,19.40
2018,06,19,08,30,19.40
2018,06,19,08,31,19.40
2018,06,19,08,32,19.50
2018,06,19,08,33,19.50
2018,06,19,08,34,19.50
2018,06,19,08,35,19.60
2018,06,19,08,36,19.60
2018,06,19,08,37,19.60
2018,06,19,08,38,19.60
2018,06,19,08,39,19.60
2018,06,19,08,40,19.60
2018,06,19,08,41,19.60
2018,06,19,08,42,19.60
2018,06,19,08,43,19.50
2018,06,19,08,44,19.50
2018,06,19,08,45,19.50
2018,06,19,08,46,19.50
2018,06,19,08,47,19.40
2018,06,19,08,48,19.40
2018,06,19,08,49,19.40
2018,06,19,08,50,19.30
2018,06,19,08,51,19.30
2018,06,19,08,52,19.20
2018,06,19,08,53,19.20
2018,06,19,08,54,19.20
2018,06,19,08,55,19.20
2018,06,19,08,56,19.10
2018,06,19,08,57,19.10
2018,06,19,08,58,19.10
2018,06,19,08,59,19.10
2018,06,19,09,00,19.10
2018,06,19,09,01,19.10
2018,06,19,09,02,19.10
2018,06,19,09,03,19.10
2018,06,19,09,04,19.10
2018,06,19,09,05,19.10
2018,06,19,09,06,19.10
2018,06,19,09,07,19.10
2018,06,19,09,08,19.10
2018,06,19,09,09,19.10
2018,06,19,09,10,19.10
2018,06,19,09,11,19.10
2018,06,19,09,12,19.20
2018,06,19,09,13,19.20
2018,06,19,09,14,19.30
2018,06,19,09,15,19.30
2018,06,19,09,16,19.30
2018,06,19,09,17,19.30
2018,06,19,09,18,19.30
2018,06,19,09,19,19.30
2018,06,19,09,20,19.40
2018,06,19,09,21,19.40
2018,06,19,09,22,19.40
2018,06,19,09,23,19.40
2018,06,19,09,24,19.40
2018,06,19,09,25,19.40
2018,06,19,09,26,19.50
2018,06,19,09,27,19.50
2018,06,19,09,28,19.40
2018,06,19,09,29,19.40
2018,06,19,09,30,19.40
2018,06,19,09,31,19.40
2018,06,19,09,32,19.40
2018,06,19,09,33,19.40
2018,06,19,09,34,19.40
2018,06,19,09,35,19.40
2018,06,19,09,36,19.40
2018,06,19,09,37,19.50
2018,06,19,09,38,19.40
2018,06,19,09,39,19.40
2018,06,19,09,40,19.40
2018,06,19,09,41,19.40
2018,06,19,09,42,19.40
2018,06,19,09,43,19.40
2018,06,19,09,44,19.40
2018,06,19,09,45,19.40
2018,06,19,09,46,19.40
2018,06,19,09,47,19.40
2018,06,19,09,48,19.40
2018,06,19,09,49,19.40
2018,06,19,09,50,19.40
2018,06,19,09,51,19.50
2018,06,19,09,52,19.50
2018,06,19,09,53,19.50
2018,06,19,09,54,19.50
2018,06,19,09,55,19.50
2018,06,19,09,56,19.50
2018,06,19,09,57,19.50
2018,06,19,09,58,19.50
2018,06,19,09,59,19.60
2018,06,19,10,00,19.60
2018,06,19,10,01,19.60
2018,06,19,10,02,19.60
2018,06,19,10,03,19.60
2018,06,19,10,04,19.70
2018,06,19,10,05,19.70
2018,06,19,10,06,19.80
2018,06,19,10,07,19.80
2018,06,19,10,08,19.90
2018,06,19,10,09,19.90
2018,06,19,10,10,20.00
2018,06,19,10,11,20.10
2018,06,19,10,12,20.10
2018,06,19,10,13,20.20
2018,06,19,10,14,20.30
2018,06,19,10,15,20.50
2018,06,19,10,16,20.60
2018,06,19,10,17,20.70
2018,06,19,10,18,20.70
2018,06,19,10,19,20.80
2018,06,19,10,20,20.80
2018,06,19,10,21,20.80
2018,06,19,10,22,20.70
2018,06,19,10,23,20.80
2018,06,19,10,24,20.80
2018,06,19,10,25,20.90
2018,06,19,10,26,20.90
2018,06,19,10,27,20.90
2018,06,19,10,28,20.90
2018,06,19,10,29,20.80
2018,06,19,10,30,20.80
2018,06,19,10,31,20.90
2018,06,19,10,32,21.00
2018,06,19,10,33,21.00
2018,06,19,10,34,21.10
2018,06,19,10,35,21.10
2018,06,19,10,36,21.10
2018,06,19,10,37,21.20
2018,06,19,10,38,21.10
2018,06,19,10,39,21.10
2018,06,19,10,40,21.20
2018,06,19,10,41,21.20
2018,06,19,10,42,21.30
2018,06,19,10,43,21.40
2018,06,19,10,44,21.40
2018,06,19,10,45,21.40
2018,06,19,10,46,21.40
2018,06,19,10,47,21.40
2018,06,19,10,48,21.40
2018,06,19,10,49,21.40
2018,06,19,10,50,21.40
2018,06,19,10,51,21.40
2018,06,19,10,52,21.40
2018,06,19,10,53,21.50
2018,06,19,10,54,21.50
2018,06,19,10,55,21.50
2018,06,19,10,56,21.50
2018,06,19,10,57,21.60
2018,06,19,10,58,21.70
2018,06,19,10,59,21.80
2018,06,19,11,00,21.90
2018,06,19,11,01,21.90
2018,06,19,11,02,21.90
2018,06,19,11,03,22.00
2018,06,19,11,04,22.00
2018,06,19,11,05,22.10
2018,06,19,11,06,22.10
2018,06,19,11,07,22.20
2018,06,19,11,08,22.20
2018,06,19,11,09,22.30
2018,06,19,11,10,22.30
2018,06,19,11,11,22.30
2018,06,19,11,12,22.30
2018,06,19,11,13,22.30
2018,06,19,11,14,22.30
2018,06,19,11,15,22.30
2018,06,19,11,16,22.30
2018,06,19,11,17,22.20
2018,06,19,11,18,22.20
2018,06,19,11,19,22.20
2018,06,19,11,20,22.20
2018,06,19,11,21,22.20
2018,06,19,11,22,22.30
2018,06,19,11,23,22.30
2018,06,19,11,24,22.30
2018,06,19,11,25,22.30
2018,06,19,11,26,22.30
2018,06,19,11,27,22.30
2018,06,19,11,28,22.30
2018,06,19,11,29,22.30
2018,06,19,11,30,22.40
2018,06,19,11,31,22.50
2018,06,19,11,32,22.60
2018,06,19,11,33,22.60
2018,06,19,11,34,22.70
2018,06,19,11,35,22.70
2018,06,19,11,36,22.80
2018,06,19,11,37,22.80
2018,06,19,11,38,22.70
2018,06,19,11,39,22.70
2018,06,19,11,40,22.70
2018,06,19,11,41,22.70
2018,06,19,11,42,22.70
2018,06,19,11,43,22.70
2018,06,19,11,44,22.80
2018,06,19,11,45,22.80
2018,06,19,11,46,22.90
2018,06,19,11,47,22.90
2018,06,19,11,48,22.90
2018,06,19,11,49,22.90
2018,06,19,11,50,22.90
2018,06,19,11,51,22.90
2018,06,19,11,52,22.90
2018,06,19,11,53,22.90
2018,06,19,11,54,22.90
2018,06,19,11,55,22.90
2018,06,19,11,56,22.90
2018,06,19,11,57,22.90
2018,06,19,11,58,22.90
2018,06,19,11,59,23.00
2018,06,19,12,00,23.00
2018,06,19,12,01,23.10
2018,06,19,12,02,23.10
2018,06,19,12,03,23.10
2018,06,19,12,04,23.10
2018,06,19,12,05,23.10
2018,06,19,12,06,23.20
2018,06,19,12,07,23.20
2018,06,19,12,08,23.20
2018,06,19,12,09,23.30
2018,06,19,12,10,23.30
2018,06,19,12,11,23.30
2018,06,19,12,12,23.30
2018,06,19,12,13,23.30
2018,06,19,12,14,23.40
2018,06,19,12,15,23.40
2018,06,19,12,16,23.40
2018,06,19,12,17,23.40
2018,06,19,12,18,23.40
2018,06,19,12,19,23.40
2018,06,19,12,20,23.50
2018,06,19,12,21,23.50
2018,06,19,12,22,23.50
2018,06,19,12,23,23.60
2018,06,19,12,24,23.60
2018,06,19,12,25,23.60
2018,06,19,12,26,23.60
2018,06,19,12,27,23.60
2018,06,19,12,28,23.60
2018,06,19,12,29,23.60
2018,06,19,12,30,23.60
2018,06,19,12,31,23.70
2018,06,19,12,32,23.70
2018,06,19,12,33,23.70
2018,06,19,12,34,23.80
2018,06,19,12,35,23.90
2018,06,19,12,36,23.90
2018,06,19,12,37,24.00
2018,06,19,12,38,24.10
2018,06,19,12,39,24.10
2018,06,19,12,40,24.20
2018,06,19,12,41,24.30
2018,06,19,12,42,24.30
2018,06,19,12,43,24.40
2018,06,19,12,44,24.40
2018,06,19,12,45,24.50
2018,06,19,12,46,24.50
2018,06,19,12,47,24.60
2018,06,19,12,48,24.60
2018,06,19,12,49,24.60
2018,06,19,12,50,24.70
2018,06,19,12,51,24.80
2018,06,19,12,52,24.80
2018,06,19,12,53,24.80
2018,06,19,12,54,24.80
2018,06,19,12,55,24.80
2018,06,19,12,56,24.80
2018,06,19,12,57,24.70
2018,06,19,12,58,24.70
2018,06,19,12,59,24.70
2018,06,19,13,00,24.80
2018,06,19,13,01,24.80
2018,06,19,13,02,24.80
2018,06,19,13,03,24.80
2018,06,19,13,04,24.70
2018,06,19,13,05,24.70
2018,06,19,13,06,24.70
2018,06,19,13,07,24.70
2018,06,19,13,08,24.70
2018,06,19,13,09,24.70
2018,06,19,13,10,24.70
2018,06,19,13,11,24.60
2018,06,19,13,12,24.60
2018,06,19,13,13,24.60
2018,06,19,13,14,24.60
2018,06,19,13,15,24.60
2018,06,19,13,16,24.60
2018,06,19,13,17,24.70
2018,06,19,13,18,24.70
2018,06,19,13,19,24.80
2018,06,19,13,20,24.80
2018,06,19,13,21,24.90
2018,06,19,13,22,24.90
2018,06,19,13,23,24.90
2018,06,19,13,24,24.90
2018,06,19,13,25,25.00
2018,06,19,13,26,25.00
2018,06,19,13,27,25.10
2018,06,19,13,28,25.10
2018,06,19,13,29,25.20
2018,06,19,13,30,25.30
2018,06,19,13,31,25.30
2018,06,19,13,32,25.30
2018,06,19,13,33,25.40
2018,06,19,13,34,25.40
2018,06,19,13,35,25.40
2018,06,19,13,36,25.40
2018,06,19,13,37,25.30
2018,06,19,13,38,25.30
2018,06,19,13,39,25.20
2018,06,19,13,40,25.20
2018,06,19,13,41,25.10
2018,06,19,13,42,25.10
2018,06,19,13,43,25.00
2018,06,19,13,44,24.90
2018,06,19,13,45,24.90
2018,06,19,13,46,25.00
2018,06,19,13,47,25.10
2018,06,19,13,48,25.10
2018,06,19,13,49,25.20
2018,06,19,13,50,25.30
2018,06,19,13,51,25.30
2018,06,19,13,52,25.40
2018,06,19,13,53,25.50
2018,06,19,13,54,25.60
2018,06,19,13,55,25.70
2018,06,19,13,56,25.90
2018,06,19,13,57,25.90
2018,06,19,13,58,25.90
2018,06,19,13,59,25.90
2018,06,19,14,00,25.80
2018,06,19,14,01,25.70
2018,06,19,14,02,25.60
2018,06,19,14,03,25.60
2018,06,19,14,04,25.60
2018,06,19,14,05,25.70
2018,06,19,14,06,25.70
2018,06,19,14,07,25.80
2018,06,19,14,08,25.80
2018,06,19,14,09,25.90
2018,06,19,14,10,25.90
2018,06,19,14,11,26.00
2018,06,19,14,12,26.00
2018,06,19,14,13,26.00
2018,06,19,14,14,25.90
2018,06,19,14,15,25.90
2018,06,19,14,16,25.90
2018,06,19,14,17,25.90
2018,06,19,14,18,25.80
2018,06,19,14,19,25.80
2018,06,19,14,20,25.70
2018,06,19,14,21,25.70
2018,06,19,14,22,25.70
2018,06,19,14,23,25.80
2018,06,19,14,24,25.80
2018,06,19,14,25,25.70
2018,06,19,14,26,25.70
2018,06,19,14,27,25.70
2018,06,19,14,28,25.70
2018,06,19,14,29,25.70
2018,06,19,14,30,25.70
2018,06,19,14,31,25.70
2018,06,19,14,32,25.70
2018,06,19,14,33,25.80
2018,06,19,14,34,25.80
2018,06,19,14,35,25.90
2018,06,19,14,36,25.90
2018,06,19,14,37,25.90
2018,06,19,14,38,25.90
2018,06,19,14,39,25.80
2018,06,19,14,40,25.80
2018,06,19,14,41,25.70
2018,06,19,14,42,25.70
2018,06,19,14,43,25.60
2018,06,19,14,44,25.60
2018,06,19,14,45,25.60
2018,06,19,14,46,25.60
2018,06,19,14,47,25.70
2018,06,19,14,48,25.70
2018,06,19,14,49,25.70
2018,06,19,14,50,25.70
2018,06,19,14,51,25.70
2018,06,19,14,52,25.70
2018,06,19,14,53,25.80
2018,06,19,14,54,25.80
2018,06,19,14,55,25.80
2018,06,19,14,56,25.80
2018,06,19,14,57,25.80
2018,06,19,14,58,25.80
2018,06,19,14,59,25.80
2018,06,19,15,00,25.80
2018,06,19,15,01,25.80
2018,06,19,15,02,25.70
2018,06,19,15,03,25.70
2018,06,19,15,04,25.70
2018,06,19,15,05,25.70
2018,06,19,15,06,25.70
2018,06,19,15,07,25.80
2018,06,19,15,08,25.80
2018,06,19,15,09,25.80
2018,06,19,15,10,25.80
2018,06,19,15,11,25.80
2018,06,19,15,12,25.80
2018,06,19,15,13,25.80
2018,06,19,15,14,25.70
2018,06,19,15,15,25.70
2018,06,19,15,16,25.80
2018,06,19,15,17,25.80
2018,06,19,15,18,25.80
2018,06,19,15,19,25.80
2018,06,19,15,20,25.80
2018,06,19,15,21,25.90
2018,06,19,15,22,25.90
2018,06,19,15,23,25.90
2018,06,19,15,24,25.90
2018,06,19,15,25,26.00
2018,06,19,15,26,26.00
2018,06,19,15,27,26.00
2018,06,19,15,28,25.90
2018,06,19,15,29,25.90
2018,06,19,15,30,25.90
2018,06,19,15,31,25.90
2018,06,19,15,32,25.90
2018,06,19,15,33,25.90
2018,06,19,15,34,25.90
2018,06,19,15,35,26.00
2018,06,19,15,36,26.00
2018,06,19,15,37,26.00
2018,06,19,15,38,26.10
2018,06,19,15,39,26.10
2018,06,19,15,40,26.10
2018,06,19,15,41,26.10
2018,06,19,15,42,26.20
2018,06,19,15,43,26.20
2018,06,19,15,44,26.30
2018,06,19,15,45,26.30
2018,06,19,15,46,26.20
2018,06,19,15,47,26.20
2018,06,19,15,48,26.20
2018,06,19,15,49,26.30
2018,06,19,15,50,26.30
2018,06,19,15,51,26.30
2018,06,19,15,52,26.40
2018,06,19,15,53,26.40
2018,06,19,15,54,26.40
2018,06,19,15,55,26.40
2018,06,19,15,56,26.40
2018,06,19,15,57,26.40
2018,06,19,15,58,26.40
2018,06,19,15,59,26.40
2018,06,19,16,00,26.50
2018,06,19,16,01,26.50
2018,06,19,16,02,26.60
2018,06,19,16,03,26.60
2018,06,19,16,04,26.60
2018,06,19,16,05,26.70
2018,06,19,16,06,26.70
2018,06,19,16,07,26.80
2018,06,19,16,08,26.90
2018,06,19,16,09,26.90
2018,06,19,16,10,26.90
2018,06,19,16,11,26.90
2018,06,19,16,12,26.90
2018,06,19,16,13,26.90
2018,06,19,16,14,26.90
2018,06,19,16,15,26.90
2018,06,19,16,16,26.90
2018,06,19,16,17,26.90
2018,06,19,16,18,26.90
2018,06,19,16,19,26.80
2018,06,19,16,20,26.80
2018,06,19,16,21,26.80
2018,06,19,16,22,26.90
2018,06,19,16,23,26.90
2018,06,19,16,24,26.90
2018,06,19,16,25,26.90
2018,06,19,16,26,26.90
2018,06,19,16,27,26.90
2018,06,19,16,28,26.90
2018,06,19,16,29,26.80
2018,06,19,16,30,26.80
2018,06,19,16,31,26.90
2018,06,19,16,32,26.90
2018,06,19,16,33,26.90
2018,06,19,16,34,26.90
2018,06,19,16,35,26.90
2018,06,19,16,36,26.90
2018,06,19,16,37,26.90
2018,06,19,16,38,26.90
2018,06,19,16,39,26.90
2018,06,19,16,40,26.90
2018,06,19,16,41,26.90
2018,06,19,16,42,26.90
2018,06,19,16,43,26.90
2018,06,19,16,44,26.90
2018,06,19,16,45,27.00
2018,06,19,16,46,27.10
2018,06,19,16,47,27.10
2018,06,19,16,48,27.20
2018,06,19,16,49,27.20
2018,06,19,16,50,27.20
2018,06,19,16,51,27.20
2018,06,19,16,52,27.20
2018,06,19,16,53,27.20
2018,06,19,16,54,27.20
2018,06,19,16,55,27.10
2018,06,19,16,56,27.10
2018,06,19,16,57,27.10
2018,06,19,16,58,27.10
2018,06,19,16,59,27.10
2018,06,19,17,00,27.20
2018,06,19,17,01,27.10
2018,06,19,17,02,27.10
2018,06,19,17,03,27.10
2018,06,19,17,04,27.10
2018,06,19,17,05,27.00
2018,06,19,17,06,26.90
2018,06,19,17,07,26.90
2018,06,19,17,08,26.80
2018,06,19,17,09,26.80
2018,06,19,17,10,26.80
2018,06,19,17,11,26.80
2018,06,19,17,12,26.80
2018,06,19,17,13,26.80
2018,06,19,17,14,26.70
2018,06,19,17,15,26.70
2018,06,19,17,16,26.70
2018,06,19,17,17,26.70
2018,06,19,17,18,26.80
2018,06,19,17,19,26.80